Погода в Тетуане

Марокко     35°34′28″N   5°22′26″W
темп.,
°C
ветер,
м/с
пор.,
м/с
влажн.,
%
обл.,
%
осадки,
мм/ч
давл.,
гПа
погр.,
м
4 декабря, сб
сб401:00+8зюз44690 0.0 102657
04:00+8юз44600 0.0 102654
07:00+8зюз44550 0.0 102658
10:00+12зюз45530 0.0 1027144
13:00+16з45450 0.0 1026619
16:00+16з56550 0.0 1025715
19:00+11зюз45820 0.0 102785
22:00+11зюз45770 0.0 102767
5 декабря, вс
вс501:00+11зюз44781 0.0 102769
04:00+10зюз55844 0.0 102675
07:00+13зюз458068 0.0 1025135
10:00+14з57690 0.0 1026615
13:00+17з67420 0.0 1025751
16:00+17з67385 0.0 1023624
19:00+10з56710 0.0 1026160
22:00+9зюз55750 0.0 1027110
6 декабря, пн
пн601:00+10зюз45751 0.0 102793
04:00+9зюз45815 0.0 102776
07:00+8зюз55840 0.0 102676
10:00+11зюз45700 0.0 1027170
13:00+16з44470 0.0 1026581
16:00+17з44435 0.0 1024625
19:00+12зюз44680 0.0 102555
22:00+10зюз44730 0.0 102556
7 декабря, вт
вт701:00+10юз33610 0.0 102546
04:00+10юз33580 0.0 102443
07:00+10юз33620 0.0 102342
10:00+13зюз34565 0.0 1023146
13:00+18з45467 0.0 1022647
16:00+18з56494 0.0 1021898
19:00+12зюз457286 0.0 102298
22:00+11зюз557868 0.0 102286
8 декабря, ср
ср801:00+13юз467125 0.0 1021153
04:00+11юз568245 0.0 102191
07:00+11юз56848 0.0 1020129
10:00+14з4779100 0.3 1020449
13:00+12з4690100 2.0 1022420
16:00+13з486870 0.3 10211311
19:00+11зюз457775 0.3 1022134
22:00+12зюз467879 0.1 1023300